Cosmos 1441 - Orbit

View from above orbital plane
View from above orbital plane
View from above satellite
View from above satellite

Ground track
Ground track

The orbit data is extracted from the following two-line orbital elements,

1 13818U 83010A   13142.79966779  .00017138  00000-0  36501-3 0  5752
2 13818 081.0734 222.4481 0000231 281.4957 228.2235 15.44811820659144
Epoch (UTC): 22 May 2013 19:11:31
Eccentricity: 0.0000231
inclination: 81.0734°
perigee height: 432 km
apogee height: 432 km
right ascension of ascending node: 222.4481°
argument of perigee: 281.4957°
revolutions per day: 15.44811820
mean anomaly at epoch: 228.2235°
orbit number at epoch: 65914

The dashed part of the orbit path shows where the satellite is in the earth's shadow,  

Developed and maintained by Chris Peat, Heavens-Above GmbH. Please read the updated FAQ before sending e-mail. Imprint. DLR